Zurück zum Katalog

THORAD AGENA D DEB

AktivLEO
NORAD 42505·DEBRIS·🇺🇸 United States

Gestartet Apr 8, 1970 von Vandenberg Space Force Base

Loading…

Nächste Überflüge (nächste 24 Stunden)

TLE

AktuellSource: Space-Track

Epoche: Sep 14, 2026, 02:57 UTC

1 42505U 70025RK  26257.12320782  .00000361  00000-0  54620-3 0  9997
2 42505 100.1810 215.9770 0044300 333.7674  87.7090 13.59879930635362

Verfolge THORAD AGENA D DEB in Echtzeit mit AllMySat

Download on the App Store